Valley Farms, AZ

5:07 AM MST on February 25, 2017 (GMT -0700)
Coolidge Muni, Coolidge

Weather History for KP08 - February, 2014

Change the Weather History Date:

Monday, February 3, 2014

  Actual Average (KCGZ) Record (KCGZ)
Temperature  
Mean Temperature 50 °F -  
Max Temperature 59 °F 63 °F 78 °F (2009)
Min Temperature 41 °F 38 °F 23 °F (2011)
Degree Days  
Heating Degree Days 14    
Moisture  
Dew Point 19 °F    
Average Humidity 28    
Maximum Humidity 43    
Minimum Humidity 16    
Precipitation  
Precipitation 0.00 in - - ()
Sea Level Pressure  
Sea Level Pressure 29.89 in    
Wind  
Wind Speed 4 mph (SW)    
Max Wind Speed 14 mph    
Max Gust Speed 17 mph    
Visibility 10 miles    
Events      
Averages and records for this station are not official NWS values.
T = Trace of Precipitation, MM = Missing Value Source: NWS Daily Summary

Daily Weather History Graph

Daily Weather History Graph

Search for Another Location

Airport or City:

Trip Planner

Search our weather history database for the weather conditions in past years. The results will help you decide how hot, cold, wet, or windy it might be!

Date:

Astronomy

Feb. 03, 2014 Rise Set
Actual Time 7:19 AM MST 6:00 PM MST
Civil Twilight 6:53 AM MST 6:25 PM MST
Nautical Twilight 6:24 AM MST 6:55 PM MST
Astronomical Twilight 5:55 AM MST 7:24 PM MST
Moon 9:40 AM MST (2/3) 10:36 PM MST (2/3)
Length of Visible Light 11h 32m
Length of Day
10h 40m
Waxing Crescent, 20% of the Moon is Illuminated
Feb 3
Waxing Crescent
Feb 6
First Quarter
Feb 14
Full
Feb 22
Last Quarter
Mar 1
New

Hourly Weather History & Observations

Time (MST) Temp. Windchill Dew Point Humidity Pressure Visibility Wind Dir Wind Speed Gust Speed Precip Events Conditions
12:15 AM 50.0 °F - 19.4 °F 30% 29.96 in 10.0 mi Calm Calm - N/A   Partly Cloudy
12:35 AM 50.0 °F - 21.2 °F 32% 29.95 in 10.0 mi South 4.6 mph - N/A   Partly Cloudy
12:55 AM 51.8 °F - 19.4 °F 28% 29.95 in 10.0 mi South 4.6 mph - N/A   Partly Cloudy
1:15 AM 50.0 °F - 19.4 °F 30% 29.94 in 10.0 mi Calm Calm - N/A   Clear
1:35 AM 50.0 °F - 21.2 °F 32% 29.94 in 10.0 mi Calm Calm - N/A   Clear
1:55 AM 50.0 °F - 21.2 °F 32% 29.94 in 10.0 mi South 3.5 mph - N/A   Clear
2:15 AM 50.0 °F - 21.2 °F 32% 29.93 in 10.0 mi SSE 4.6 mph - N/A   Clear
2:35 AM 50.0 °F - 21.2 °F 32% 29.93 in 10.0 mi South 4.6 mph - N/A   Partly Cloudy
2:55 AM 48.2 °F - 21.2 °F 34% 29.92 in 10.0 mi SSE 6.9 mph - N/A   Mostly Cloudy
3:15 AM 50.0 °F - 21.2 °F 32% 29.92 in 10.0 mi SSE 3.5 mph - N/A   Overcast
3:35 AM 50.0 °F - 21.2 °F 32% 29.91 in 10.0 mi Calm Calm - N/A   Mostly Cloudy
3:55 AM 50.0 °F - 21.2 °F 32% 29.90 in 10.0 mi Calm Calm - N/A   Mostly Cloudy
4:15 AM 48.2 °F - 23.0 °F 37% 29.90 in 10.0 mi ESE 6.9 mph - N/A   Mostly Cloudy
4:35 AM 48.2 °F - 23.0 °F 37% 29.89 in 10.0 mi SE 5.8 mph - N/A   Mostly Cloudy
4:55 AM 48.2 °F - 23.0 °F 37% 29.89 in 10.0 mi SSE 3.5 mph - N/A   Mostly Cloudy
5:15 AM 48.2 °F - 23.0 °F 37% 29.89 in 10.0 mi Calm Calm - N/A   Mostly Cloudy
5:35 AM 46.4 °F - 23.0 °F 40% 29.89 in 10.0 mi Calm Calm - N/A   Mostly Cloudy
5:55 AM 46.4 °F - 23.0 °F 40% 29.89 in 10.0 mi Calm Calm - N/A   Scattered Clouds
6:15 AM 44.6 °F - 23.0 °F 43% 29.89 in 10.0 mi Calm Calm - N/A   Scattered Clouds
6:35 AM 46.4 °F 44.3 °F 23.0 °F 40% 29.89 in 10.0 mi ENE 4.6 mph - N/A   Mostly Cloudy
6:55 AM 44.6 °F 42.2 °F 23.0 °F 43% 29.89 in 10.0 mi ESE 4.6 mph - N/A   Mostly Cloudy
7:15 AM 44.6 °F 42.2 °F 23.0 °F 43% 29.89 in 8.0 mi ESE 4.6 mph - N/A   Mostly Cloudy
7:35 AM 44.6 °F - 23.0 °F 43% 29.89 in 10.0 mi Calm Calm - N/A   Scattered Clouds
7:55 AM 46.4 °F - 21.2 °F 37% 29.90 in 10.0 mi Calm Calm - N/A   Scattered Clouds
8:15 AM 46.4 °F - 23.0 °F 40% 29.90 in 10.0 mi Calm Calm - N/A   Partly Cloudy
8:35 AM 46.4 °F - 23.0 °F 40% 29.90 in 10.0 mi Calm Calm - N/A   Partly Cloudy
8:55 AM 50.0 °F - 23.0 °F 35% 29.91 in 10.0 mi Calm Calm - N/A   Partly Cloudy
9:15 AM 50.0 °F - 23.0 °F 35% 29.90 in 10.0 mi Calm Calm - N/A   Clear
9:30 AM 51.8 °F - 23.0 °F 33% 29.90 in 10.0 mi Calm Calm - N/A   Clear
9:55 AM 53.6 °F - 19.4 °F 26% 29.90 in 10.0 mi Calm Calm - N/A   Clear
10:15 AM 55.4 °F - 17.6 °F 23% 29.90 in 10.0 mi SW 4.6 mph - N/A   Clear
10:35 AM 57.2 °F - 17.6 °F 21% 29.90 in 10.0 mi SSW 5.8 mph - N/A   Clear
10:55 AM 57.2 °F - 17.6 °F 21% 29.89 in 10.0 mi South 3.5 mph - N/A   Clear
11:15 AM 57.2 °F - 19.4 °F 23% 29.88 in 10.0 mi WSW 6.9 mph - N/A   Partly Cloudy
11:35 AM 59.0 °F - 17.6 °F 20% 29.88 in 10.0 mi West 8.1 mph - N/A   Mostly Cloudy
11:55 AM 59.0 °F - 17.6 °F 20% 29.87 in 10.0 mi WSW 6.9 mph - N/A   Mostly Cloudy
12:15 PM 59.0 °F - 15.8 °F 19% 29.86 in 10.0 mi SW 6.9 mph - N/A   Scattered Clouds
12:35 PM 59.0 °F - 15.8 °F 19% 29.85 in 10.0 mi WSW 8.1 mph - N/A   Scattered Clouds
12:55 PM 59.0 °F - 15.8 °F 19% 29.84 in 10.0 mi West 10.4 mph - N/A   Scattered Clouds
1:15 PM 59.0 °F - 17.6 °F 20% 29.83 in 10.0 mi WNW 9.2 mph - N/A   Scattered Clouds
1:35 PM 59.0 °F - 17.6 °F 20% 29.83 in 10.0 mi WNW 6.9 mph - N/A   Scattered Clouds
1:55 PM 57.2 °F - 17.6 °F 21% 29.82 in 10.0 mi NNW 5.8 mph - N/A   Partly Cloudy
2:15 PM 59.0 °F - 17.6 °F 20% 29.81 in 10.0 mi Variable 6.9 mph 13.8 mph N/A   Partly Cloudy
2:35 PM 59.0 °F - 15.8 °F 19% 29.81 in 10.0 mi NNW 5.8 mph - N/A   Partly Cloudy
2:55 PM 59.0 °F - 14.0 °F 17% 29.81 in 10.0 mi Variable 3.5 mph - N/A   Partly Cloudy
3:15 PM 59.0 °F - 12.2 °F 16% 29.81 in 10.0 mi NNW 5.8 mph - N/A   Mostly Cloudy
3:35 PM 59.0 °F - 12.2 °F 16% 29.82 in 10.0 mi WNW 6.9 mph - N/A   Mostly Cloudy
3:55 PM 59.0 °F - 14.0 °F 17% 29.82 in 10.0 mi WNW 10.4 mph - N/A   Scattered Clouds
4:15 PM 59.0 °F - 15.8 °F 19% 29.82 in 10.0 mi WNW 11.5 mph - N/A   Mostly Cloudy
4:35 PM 59.0 °F - 17.6 °F 20% 29.83 in 10.0 mi WNW 13.8 mph - N/A   Scattered Clouds
4:55 PM 57.2 °F - 17.6 °F 21% 29.83 in 10.0 mi WNW 6.9 mph 12.7 mph N/A   Scattered Clouds
5:15 PM 57.2 °F - 14.0 °F 18% 29.84 in 10.0 mi NW 11.5 mph 17.3 mph N/A   Overcast
5:35 PM 57.2 °F - 15.8 °F 20% 29.84 in 10.0 mi NW 12.7 mph - N/A   Overcast
5:55 PM 55.4 °F - 15.8 °F 21% 29.85 in 10.0 mi NW 10.4 mph - N/A   Overcast
6:15 PM 55.4 °F - 15.8 °F 21% 29.86 in 10.0 mi NW 9.2 mph - N/A   Overcast
6:35 PM 55.4 °F - 15.8 °F 21% 29.86 in 10.0 mi NW 8.1 mph - N/A   Overcast
6:55 PM 53.6 °F - 15.8 °F 22% 29.87 in 10.0 mi NW 5.8 mph - N/A   Overcast
7:15 PM 53.6 °F - 15.8 °F 22% 29.87 in 10.0 mi NNW 4.6 mph - N/A   Overcast
7:35 PM 53.6 °F - 17.6 °F 24% 29.88 in 10.0 mi Calm Calm - N/A   Overcast
7:55 PM 53.6 °F - 15.8 °F 22% 29.88 in 10.0 mi Calm Calm - N/A   Overcast
8:15 PM 51.8 °F - 17.6 °F 26% 29.89 in 10.0 mi Calm Calm - N/A   Overcast
8:35 PM 50.0 °F - 17.6 °F 28% 29.89 in 10.0 mi SSW 4.6 mph - N/A   Overcast
8:55 PM 50.0 °F - 19.4 °F 30% 29.90 in 10.0 mi Calm Calm - N/A   Overcast
9:15 PM 50.0 °F - 17.6 °F 28% 29.90 in 10.0 mi Calm Calm - N/A   Overcast
9:35 PM 46.4 °F 45.2 °F 17.6 °F 32% 29.91 in 10.0 mi South 3.5 mph - N/A   Mostly Cloudy
9:55 PM 46.4 °F 44.3 °F 17.6 °F 32% 29.91 in 10.0 mi SSE 4.6 mph - N/A   Partly Cloudy
10:15 PM 44.6 °F 40.7 °F 17.6 °F 34% 29.92 in 10.0 mi SSE 6.9 mph - N/A   Clear
10:35 PM 44.6 °F 41.4 °F 17.6 °F 34% 29.92 in 10.0 mi South 5.8 mph - N/A   Clear
10:55 PM 42.8 °F 40.1 °F 17.6 °F 36% 29.93 in 10.0 mi SSE 4.6 mph - N/A   Clear
11:15 PM 42.8 °F 38.0 °F 15.8 °F 34% 29.93 in 10.0 mi South 8.1 mph - N/A   Clear
11:35 PM 42.8 °F 38.0 °F 15.8 °F 34% 29.93 in 10.0 mi South 8.1 mph - N/A   Clear
11:55 PM 41.0 °F 37.1 °F 15.8 °F 36% 29.93 in 10.0 mi SSE 5.8 mph - N/A   Clear